Bat Cave, NC

9:43 PM EDT on September 29, 2016 (GMT -0400)
Asheville Regional

Weather History for KAVL - April, 2013

Change the Weather History Date:

Monday, April 15, 2013

  Actual Average Record
Temperature  
Mean Temperature 58 °F 55 °F  
Max Temperature 65 °F 68 °F 89 °F (1972)
Min Temperature 51 °F 43 °F 23 °F (1907)
Degree Days  
Heating Degree Days 7 10  
Month to date heating degree days 151 179  
Since 1 July heating degree days 3802 3951  
Cooling Degree Days 0 0  
Month to date cooling degree days 2 0  
Year to date cooling degree days 2 1  
Growing Degree Days 8 (Base 50)    
Moisture  
Dew Point 52 °F    
Average Humidity 84    
Maximum Humidity 100    
Minimum Humidity 67    
Precipitation  
Precipitation 0.15 in 0.10 in 1.43 in (1956)
Month to date precipitation 2.22 1.67  
Year to date precipitation 17.68 12.93  
Snow  
Snow 0.00 in 0.10 in T in (2007)
Month to date snowfall 0.0 0.6  
Since 1 July snowfall 0.5 9.8  
Snow Depth 0.00 in    
Sea Level Pressure  
Sea Level Pressure 30.06 in    
Wind  
Wind Speed 4 mph (SSE)    
Max Wind Speed 14 mph    
Max Gust Speed 18 mph    
Visibility 8 miles    
Events Rain    
T = Trace of Precipitation, MM = Missing Value Source: NWS Daily Summary

Daily Weather History Graph

Daily Weather History Graph

Search for Another Location

Airport or City:

Trip Planner

Search our weather history database for the weather conditions in past years. The results will help you decide how hot, cold, wet, or windy it might be!

Date:

Astronomy

Apr. 15, 2013 Rise Set
Actual Time 6:57 AM EDT 8:03 PM EDT
Civil Twilight 6:31 AM EDT 8:29 PM EDT
Nautical Twilight 6:00 AM EDT 9:00 PM EDT
Astronomical Twilight 5:27 AM EDT 9:33 PM EDT
Moon 10:28 AM EDT (4/15) 12:08 AM EDT (4/15)
Length of Visible Light 13h 58m
Length of Day
13h 05m
Waxing Crescent, 24% of the Moon is Illuminated
Apr 15
Waxing Crescent
Apr 18
First Quarter
Apr 25
Full
May 2
Last Quarter
May 9
New

Hourly Weather History & Observations

Time (EDT) Temp. Dew Point Humidity Pressure Visibility Wind Dir Wind Speed Gust Speed Precip Events Conditions
12:31 AM 51.8 °F 50.0 °F 94% 30.02 in 6.0 mi South 4.6 mph - 0.02 in Rain Light Rain
12:54 AM 51.1 °F 50.0 °F 96% 29.97 in 5.0 mi South 3.5 mph - 0.03 in Rain Light Rain
1:01 AM 51.8 °F 50.0 °F 94% 30.01 in 4.0 mi South 3.5 mph - 0.00 in Rain Light Rain
1:25 AM 51.8 °F 50.0 °F 94% 30.02 in 4.0 mi SSW 3.5 mph - 0.02 in Rain Light Rain
1:54 AM 51.1 °F 50.0 °F 96% 29.97 in 4.0 mi Calm Calm - 0.05 in Rain Light Rain
2:05 AM 51.8 °F 50.0 °F 94% 30.01 in 4.0 mi Calm Calm - 0.00 in Rain Light Rain
2:54 AM 51.1 °F 51.1 °F 100% 29.96 in 6.0 mi SSW 3.5 mph - 0.03 in Rain Light Rain
3:54 AM 51.1 °F 51.1 °F 100% 29.96 in 8.0 mi Calm Calm - 0.03 in Rain Light Rain
4:54 AM 52.0 °F 51.1 °F 97% 29.97 in 9.0 mi Calm Calm - 0.01 in   Overcast
5:54 AM 52.0 °F 51.1 °F 97% 29.98 in 5.0 mi Calm Calm - 0.01 in Rain Light Rain
6:16 AM 51.8 °F 51.8 °F 100% 30.02 in 3.0 mi Calm Calm - 0.01 in Rain Light Rain
6:54 AM 52.0 °F 51.1 °F 97% 29.99 in 7.0 mi Calm Calm - 0.01 in   Overcast
7:54 AM 52.0 °F 51.1 °F 97% 30.03 in 3.0 mi Calm Calm - 0.00 in Rain Light Rain
8:03 AM 51.8 °F 51.8 °F 100% 30.06 in 2.5 mi Calm Calm - 0.01 in Rain Light Rain
8:14 AM 53.6 °F 51.8 °F 94% 30.07 in 3.0 mi Calm Calm - 0.01 in Rain Light Rain
8:54 AM 53.1 °F 52.0 °F 96% 30.04 in 6.0 mi Calm Calm - 0.01 in   Overcast
9:54 AM 54.0 °F 53.1 °F 97% 30.06 in 10.0 mi Calm Calm - N/A   Overcast
10:54 AM 55.9 °F 54.0 °F 93% 30.06 in 10.0 mi Calm Calm - N/A   Overcast
11:19 AM 57.2 °F 53.6 °F 88% 30.10 in 10.0 mi SSE 3.5 mph - N/A   Overcast
11:29 AM 57.2 °F 53.6 °F 88% 30.10 in 10.0 mi South 5.8 mph - N/A   Overcast
11:54 AM 59.0 °F 54.0 °F 83% 30.08 in 10.0 mi SSW 5.8 mph - N/A   Overcast
12:54 PM 62.1 °F 53.1 °F 72% 30.07 in 10.0 mi South 3.5 mph - N/A   Mostly Cloudy
1:54 PM 64.0 °F 53.1 °F 67% 30.06 in 10.0 mi Calm Calm - N/A   Mostly Cloudy
2:54 PM 63.0 °F 52.0 °F 67% 30.08 in 10.0 mi SE 6.9 mph - N/A   Mostly Cloudy
3:01 PM 62.6 °F 53.6 °F 72% 30.11 in 10.0 mi SE 6.9 mph - N/A   Overcast
3:30 PM 62.6 °F 53.6 °F 72% 30.11 in 10.0 mi SSE 10.4 mph 16.1 mph N/A   Overcast
3:54 PM 64.0 °F 53.1 °F 67% 30.07 in 10.0 mi SSE 9.2 mph - N/A   Overcast
4:31 PM 62.6 °F 53.6 °F 72% 30.11 in 10.0 mi SSE 10.4 mph - N/A   Overcast
4:54 PM 62.1 °F 53.1 °F 72% 30.08 in 10.0 mi SSE 9.2 mph - N/A   Mostly Cloudy
5:13 PM 62.6 °F 53.6 °F 72% 30.12 in 10.0 mi SE 8.1 mph - N/A   Mostly Cloudy
5:54 PM 61.0 °F 54.0 °F 78% 30.09 in 10.0 mi South 8.1 mph - N/A   Mostly Cloudy
6:01 PM 60.8 °F 53.6 °F 77% 30.13 in 10.0 mi SSE 6.9 mph - N/A   Overcast
6:54 PM 60.1 °F 53.1 °F 78% 30.12 in 10.0 mi SE 6.9 mph - N/A   Overcast
7:54 PM 60.1 °F 54.0 °F 80% 30.13 in 10.0 mi SSE 5.8 mph - N/A   Overcast
8:54 PM 59.0 °F 54.0 °F 83% 30.16 in 10.0 mi SSE 4.6 mph - N/A   Overcast
9:54 PM 59.0 °F 53.1 °F 81% 30.18 in 10.0 mi SSE 5.8 mph - N/A   Overcast
10:54 PM 57.9 °F 53.1 °F 84% 30.19 in 10.0 mi South 5.8 mph - N/A   Overcast
11:54 PM 57.0 °F 54.0 °F 89% 30.20 in 10.0 mi South 5.8 mph - N/A   Overcast